Weather History for Worcester, MA

Change the Weather History Date:

Sunday, November 25, 2012

  Actual Average Record
Temperature  
Mean Temperature 30 °F 37 °F  
Max Temperature 33 °F 44 °F 67 °F (1979)
Min Temperature 26 °F 30 °F 9 °F (1936)
Degree Days  
Heating Degree Days 35 28  
Month to date heating degree days 604 595  
Since 1 July heating degree days 1103 1256  
Cooling Degree Days 0 0  
Month to date cooling degree days 0 0  
Year to date cooling degree days 674 471  
Moisture  
Dew Point 17 °F    
Average Humidity 62    
Maximum Humidity 75    
Minimum Humidity 49    
Precipitation  
Precipitation 0.00 in 0.15 in 2.13 in (1983)
Month to date precipitation 1.03 3.58  
Year to date precipitation 38.61 43.55  
Sea Level Pressure  
Sea Level Pressure 29.78 in    
Wind  
Wind Speed 14 mph (West)    
Max Wind Speed 29 mph    
Max Gust Speed 44 mph    
Visibility 10 miles    
Events      
T = Trace of Precipitation, MM = Missing Value Source: NWS Daily Summary

Daily Weather History Graph

Daily Weather History Graph

Search for Another Location

Airport:

Trip Planner

Search our weather history database for the weather conditions in past years. The results will help you decide how hot, cold, wet, or windy it might be!

Date:

Astronomy

Nov. 25, 2012 Rise Set
Actual Time 6:50 AM EST 4:18 PM EST
Civil Twilight 6:19 AM EST 4:49 PM EST
Nautical Twilight 5:45 AM EST 5:23 PM EST
Astronomical Twilight 5:11 AM EST 5:57 PM EST
Moon 2:35 PM EST (11/25) 3:59 AM EST (11/25)
Length of Visible Light 10h 29m
Length of Day
9h 27m
Waxing Gibbous, 93% of the Moon is Illuminated
Nov 25
Waxing Gibbous
Nov 28
Full
Dec 6
Last Quarter
Dec 13
New
Dec 20
First Quarter

Hourly Weather History & Observations

Time (EST) Temp. Windchill Dew Point Humidity Pressure Visibility Wind Dir Wind Speed Gust Speed Precip Events Conditions
12:54 AM 28.9 °F 16.5 °F 14.0 °F 54% 29.67 in 10.0 mi West 18.4 mph 29.9 mph N/A   Clear
1:54 AM 28.9 °F 15.1 °F 12.9 °F 51% 29.69 in 10.0 mi West 23.0 mph 32.2 mph N/A   Clear
2:54 AM 28.0 °F 17.0 °F 14.0 °F 56% 29.71 in 10.0 mi WNW 13.8 mph 25.3 mph N/A   Partly Cloudy
3:54 AM 28.0 °F 16.5 °F 14.0 °F 56% 29.71 in 10.0 mi West 15.0 mph 25.3 mph N/A   Partly Cloudy
4:54 AM 28.0 °F 17.5 °F 14.0 °F 56% 29.73 in 10.0 mi West 12.7 mph 23.0 mph N/A   Clear
5:54 AM 27.0 °F 14.3 °F 14.0 °F 58% 29.75 in 10.0 mi West 17.3 mph 23.0 mph N/A   Clear
6:54 AM 27.0 °F 16.7 °F 14.0 °F 58% 29.77 in 10.0 mi West 11.5 mph - N/A   Clear
7:54 AM 28.0 °F 16.5 °F 14.0 °F 56% 29.78 in 10.0 mi West 15.0 mph 27.6 mph N/A   Clear
8:54 AM 30.0 °F 17.2 °F 15.1 °F 54% 29.78 in 10.0 mi West 20.7 mph 28.8 mph N/A   Partly Cloudy
9:54 AM 30.9 °F 18.7 °F 15.1 °F 52% 29.78 in 10.0 mi West 19.6 mph 39.1 mph N/A   Clear
10:54 AM 32.0 °F 18.6 °F 15.1 °F 50% 29.77 in 10.0 mi West 25.3 mph 39.1 mph N/A   Clear
11:54 AM 32.0 °F 20.5 °F 15.1 °F 50% 29.75 in 10.0 mi West 18.4 mph 33.4 mph N/A   Scattered Clouds
12:54 PM 33.1 °F 20.6 °F 16.0 °F 50% 29.74 in 10.0 mi West 23.0 mph 34.5 mph N/A   Mostly Cloudy
1:54 PM 33.1 °F 22.6 °F 18.0 °F 54% 29.75 in 10.0 mi WNW 16.1 mph 28.8 mph N/A   Mostly Cloudy
2:54 PM 32.0 °F 23.0 °F 18.0 °F 56% 29.77 in 10.0 mi West 11.5 mph 20.7 mph N/A   Overcast
3:54 PM 32.0 °F 21.2 °F 19.0 °F 59% 29.78 in 10.0 mi West 16.1 mph 26.5 mph N/A   Overcast
4:54 PM 32.0 °F 22.5 °F 19.0 °F 59% 29.79 in 10.0 mi West 12.7 mph 18.4 mph N/A   Mostly Cloudy
5:54 PM 30.9 °F 22.8 °F 19.9 °F 64% 29.81 in 10.0 mi West 9.2 mph - N/A   Clear
6:54 PM 30.0 °F 22.4 °F 19.9 °F 66% 29.82 in 10.0 mi West 8.1 mph - N/A   Clear
7:54 PM 28.0 °F 21.7 °F 19.0 °F 69% 29.84 in 10.0 mi WSW 5.8 mph - N/A   Clear
8:54 PM 30.0 °F 25.2 °F 19.0 °F 64% 29.85 in 10.0 mi SW 4.6 mph - N/A   Mostly Cloudy
9:54 PM 28.0 °F 20.8 °F 19.0 °F 69% 29.85 in 10.0 mi SW 6.9 mph - N/A   Mostly Cloudy
10:54 PM 28.9 °F 21.9 °F 21.0 °F 72% 29.86 in 10.0 mi SW 6.9 mph - N/A   Mostly Cloudy
11:54 PM 30.0 °F 21.7 °F 21.9 °F 72% 29.87 in 10.0 mi WSW 9.2 mph - N/A   Overcast